Theta_e
311 306 302 306 312 314 312 311 310 309 312 312 309 315 319 321 323 335 339 340 344 354 354 355 354 353 353 353 351 348 346 345
305 302 309 309 312 315 310 311 312 311 308 314 318 317 321 324 324 322 327 341 350 353 354 355 353 353 353 351 349 347 344 344
303 306 311 312 316 316 308 309 309 310 309 309 317 321 321 321 320 320 330 340 347 353 352 350 347 347 348 344 342 340 340 340
300 305 311 313 314 315 311 311 308 309 310 310 317 318 318 320 318 321 327 331 336 347 347 347 348 348 346 342 338 336 336 335
304 305 307 312 316 314 314 310 308 311 307 311 314 317 318 318 319 319 323 328 330 334 340 348 347 346 342 337 334 334 333 333
305 304 305 312 316 316 313 311 316 315 307 307 314 318 318 317 317 316 318 318 320 328 331 331 333 342 338 335 335 335 334 334
304 305 307 312 308 313 316 313 314 314 312 317 319 318 315 313 312 313 317 315 316 319 322 325 326 331 338 338 337 336 335 335
311 311 309 310 308 310 312 312 313 314 316 319 319 315 313 311 311 312 316 318 319 322 324 326 330 327 328 328 329 328 327 325
312 313 313 312 308 311 310 307 312 310 312 315 315 313 311 311 311 314 316 318 320 322 326 325 325 326 325 325 325 325 325 325
313 315 313 309 311 310 311 310 315 314 315 313 312 311 311 311 313 315 315 319 324 326 325 326 327 325 324 325 324 323 325 326
316 315 311 312 310 311 310 315 317 314 314 312 311 312 312 313 317 316 315 319 323 324 325 328 327 325 325 325 325 325 325 325
314 313 310 309 311 311 311 316 312 312 310 310 310 313 313 315 315 316 315 320 322 324 326 326 325 324 326 327 327 326 325 326
311 311 308 312 307 307 312 313 312 310 310 311 312 315 314 315 316 316 315 321 322 322 324 324 324 326 327 327 328 327 326 327
306 309 310 308 301 309 312 311 311 312 312 312 312 312 314 318 318 316 318 320 322 326 322 325 325 326 327 327 327 327 327 326
302 309 309 307 303 310 312 311 310 311 311 312 312 312 318 321 320 317 318 319 321 323 323 325 324 326 326 328 327 327 327 324
300 306 307 306 306 309 311 310 309 310 311 313 312 314 319 321 321 318 320 321 322 322 323 324 324 326 326 327 327 327 326 324
304 308 306 306 307 308 310 310 308 309 310 312 313 315 319 321 321 319 319 321 322 322 321 322 324 323 323 322 325 327 328 327
303 307 307 306 305 307 310 308 309 309 309 309 313 314 317 319 318 317 317 319 323 321 322 324 325 326 326 326 327 326 326 328
299 305 306 303 299 303 309 309 310 311 310 312 313 313 316 318 316 317 317 319 321 322 324 326 326 326 325 325 325 324 324 326
302 301 294 303 290 299 303 305 308 309 308 311 313 315 316 318 316 316 318 319 322 324 325 328 326 324 322 320 319 323 325 326
Wind_Speed
4 4 6 5 5 21 9 5 5 4 6 7 9 9 9 8 12 16 14 14 13 18 16 13 12 11 11 12 12 11 12 11
1 10 13 4 8 8 2 5 7 6 7 5 6 6 10 10 10 8 11 11 13 14 12 10 10 9 9 9 8 9 10 9
6 13 16 2 8 8 4 8 3 6 5 7 3 11 10 9 7 13 8 9 9 14 13 12 11 10 8 6 5 3 4 7
7 15 9 4 5 9 7 6 4 7 6 5 7 9 9 10 8 12 12 10 9 15 15 14 13 12 12 10 8 8 8 8
11 16 14 4 8 1 12 5 3 5 4 5 8 10 9 9 9 9 11 13 9 10 13 15 13 11 11 12 11 10 8 8
13 12 18 3 10 9 7 3 9 9 5 6 7 10 10 9 9 9 9 8 9 7 5 6 6 13 15 13 14 12 9 9
16 16 17 10 5 5 6 2 2 7 8 12 13 10 8 7 5 5 7 6 7 8 8 7 7 8 12 16 14 11 9 8
15 17 16 10 7 6 6 8 6 6 8 14 13 9 9 7 8 5 7 6 7 8 7 6 2 4 5 6 5 5 5 3
18 19 16 15 10 9 10 4 2 10 11 12 9 8 9 9 6 9 8 6 6 7 7 5 1 2 2 3 2 2 4 4
22 19 15 7 7 12 10 7 4 9 16 10 9 10 10 8 8 8 8 8 8 8 6 4 3 0 3 1 1 3 4 5
21 18 10 5 9 16 16 5 2 8 11 11 10 9 8 7 10 9 9 8 8 6 5 4 3 3 2 2 3 4 3 4
19 16 8 8 15 16 11 7 8 8 9 9 10 11 7 9 8 9 8 8 7 5 5 4 5 4 4 3 5 4 4 4
18 12 14 13 17 15 10 8 10 10 10 10 10 13 14 12 11 10 8 9 7 4 3 4 4 5 4 4 4 4 4 4
10 12 20 10 20 15 10 9 9 10 10 10 13 14 10 13 12 10 10 9 6 3 3 2 1 2 2 3 3 3 4 2
16 18 22 11 19 17 11 8 8 10 9 11 10 6 12 14 13 10 9 9 6 4 1 1 3 3 3 2 2 3 2 2
19 23 18 14 13 8 10 10 11 9 9 9 10 15 16 15 13 10 9 9 7 3 2 1 3 3 2 1 2 2 2 2
22 19 17 6 21 9 10 6 7 10 9 8 10 10 15 13 12 10 9 9 6 4 2 1 1 2 1 1 2 1 2 3
23 19 4 15 20 13 8 7 9 10 10 4 12 13 13 13 8 9 9 9 6 4 3 1 1 1 1 2 3 2 2 2
19 21 16 5 5 5 5 5 7 12 8 16 21 18 14 14 11 9 9 8 7 5 4 2 2 1 3 3 3 3 1 1
21 16 9 1 6 4 6 10 10 12 10 16 18 15 14 13 10 9 8 8 7 6 4 3 3 3 3 1 2 2 1 2
Wind_Direction
189 214 216 243 274 328 347 134 142 150 97 114 142 120 144 162 138 145 164 167 171 179 181 185 191 194 201 213 221 221 233 228
223 256 262 246 264 274 336 314 175 127 111 55 156 119 148 160 152 142 114 143 159 167 168 174 189 198 215 226 229 232 238 234
270 265 267 337 268 249 345 312 96 138 109 105 68 114 130 130 121 108 105 119 135 147 152 165 181 188 193 162 161 196 249 258
276 287 311 230 58 354 326 324 17 52 109 163 142 125 152 139 135 121 140 141 153 157 165 172 180 181 180 180 191 212 230 245
279 291 311 315 61 180 279 244 98 126 107 150 158 171 152 131 127 123 138 153 162 169 178 177 181 177 181 190 203 215 226 246
278 286 287 298 181 199 228 132 175 145 147 187 209 158 134 137 147 163 167 174 172 157 147 162 174 185 197 199 213 210 213 223
267 276 280 319 342 325 332 203 215 188 146 157 152 145 141 164 172 179 191 147 117 132 121 132 152 207 205 215 220 213 214 237
258 267 279 301 325 319 350 309 259 79 92 137 150 163 160 178 187 164 108 112 112 113 110 91 32 34 196 239 206 192 211 227
257 261 275 286 327 306 305 312 341 168 150 156 167 163 179 197 173 149 131 120 124 108 107 108 90 342 333 343 124 191 221 223
255 260 260 248 290 292 275 245 298 124 163 163 170 184 183 188 150 120 115 114 106 108 113 139 141 320 289 123 222 246 239 237
259 266 243 254 262 263 267 258 146 147 148 171 187 187 195 141 131 128 113 111 109 110 132 160 160 219 244 268 271 270 251 271
259 267 254 259 264 261 252 241 158 167 169 173 182 183 137 129 138 117 125 117 119 120 161 164 193 220 233 237 246 248 265 260
270 270 266 254 260 256 247 211 203 197 204 201 187 163 174 160 147 138 135 124 128 185 174 200 240 235 234 246 239 244 254 258
259 270 267 240 259 244 234 213 235 215 210 192 210 187 164 151 131 130 117 121 130 105 92 72 355 295 255 241 246 256 252 241
266 249 261 241 253 250 195 220 234 233 220 213 213 146 145 139 133 131 128 122 116 110 14 112 330 304 274 273 276 276 283 228
256 256 255 261 302 191 209 202 230 247 230 224 181 159 145 136 134 132 127 118 122 151 188 92 314 306 286 330 297 257 282 220
255 253 246 338 269 257 219 204 225 244 246 233 155 137 133 132 131 125 122 126 152 168 213 119 347 315 317 254 273 235 240 246
272 277 173 219 253 247 202 213 218 234 246 227 123 131 131 131 125 131 135 142 156 173 153 67 158 257 212 267 268 225 238 296
258 279 285 263 306 304 260 246 273 252 220 140 146 147 148 143 141 140 142 145 160 164 140 131 33 23 340 352 334 353 336 327
251 261 261 273 285 294 308 300 297 282 137 143 150 149 148 147 144 143 145 148 144 145 165 135 83 65 79 63 305 279 283 12